IRIDIUM 33

Last updated on Mon Sep 07 2026 00:02:31 GMT+0000 (Coordinated Universal Time)

1 24946U 97051C 26249.58881101 .00000123 00000+0 36118-4 0 9990 2 24946 86.3889 315.8038 0009838 67.2980 292.9256 14.35174991516761
UTC large
Height (km)
Speed (km/s)
/
Latitude / Longitude
Inclination (degrees)
Orbital Period (minutes)
Azimuth
Elevation
Range (km)
Doppler Factor

Next 0 passes for location: London (51.5072 / 0.1276)

No passes found over London.
IRIDIUM 33